Weather History for Charleston, WV

Change the Weather History Date:

Tuesday, July 16, 2013

  Actual Average Record
Temperature  
Mean Temperature 81 °F 76 °F  
Max Temperature 92 °F 85 °F 104 °F (1988)
Min Temperature 69 °F 66 °F 51 °F (1945)
Degree Days  
Heating Degree Days 0 0  
Month to date heating degree days 0 0  
Since 1 June heating degree days 0 13  
Since 1 July heating degree days 0 0  
Cooling Degree Days 16 11  
Month to date cooling degree days 178 169  
Year to date cooling degree days 560 499  
Since 1 June cooling degree days 413 389  
Growing Degree Days 30 (Base 50)    
Moisture  
Dew Point 70 °F    
Average Humidity 71    
Maximum Humidity 97    
Minimum Humidity 44    
Precipitation  
Precipitation 0.00 in 0.17 in 1.81 in (1976)
Month to date precipitation 4.15 2.49  
Year to date precipitation 26.70 24.92  
Snow  
Snow 0.00 in - - ()
Month to date snowfall 0.0  
Since 1 September snowfall 25.3  
Snow Depth 0.00 in    
Sea Level Pressure  
Sea Level Pressure 30.28 in    
Wind  
Wind Speed 1 mph (North)    
Max Wind Speed 8 mph    
Max Gust Speed 12 mph    
Visibility 8 miles    
Events      
T = Trace of Precipitation, MM = Missing Value Source: NWS Daily Summary

Daily Weather History Graph

Daily Weather History Graph

Search for Another Location

Airport:

Trip Planner

Search our weather history database for the weather conditions in past years. The results will help you decide how hot, cold, wet, or windy it might be!

Date:

Astronomy

Jul. 16, 2013 Rise Set
Actual Time 6:15 AM EDT 8:48 PM EDT
Civil Twilight 5:44 AM EDT 9:19 PM EDT
Nautical Twilight 5:06 AM EDT 9:57 PM EDT
Astronomical Twilight 4:24 AM EDT 10:39 PM EDT
Moon 2:30 PM EDT (7/16) 12:42 AM EDT (7/16)
Length of Visible Light 15h 34m
Length of Day
14h 33m
First Quarter, 56% of the Moon is Illuminated
Jul 16
First Quarter
Jul 22
Full
Jul 29
Last Quarter
Aug 6
New
Aug 14
First Quarter

Hourly Weather History & Observations

Time (EDT) Temp. Heat Index Dew Point Humidity Pressure Visibility Wind Dir Wind Speed Gust Speed Precip Events Conditions
12:54 AM 73.0 °F - 70.0 °F 90% 30.28 in 10.0 mi Calm Calm - N/A   Clear
1:54 AM 72.0 °F - 70.0 °F 93% 30.28 in 10.0 mi Calm Calm - N/A   Clear
2:54 AM 72.0 °F - 69.1 °F 91% 30.27 in 10.0 mi Calm Calm - N/A   Clear
3:54 AM 71.1 °F - 69.1 °F 93% 30.27 in 10.0 mi Calm Calm - N/A   Clear
4:01 AM 71.6 °F - 69.8 °F 94% 30.30 in 3.0 mi Calm Calm - N/A   Scattered Clouds
4:03 AM 71.6 °F - 69.8 °F 94% 30.30 in 0.8 mi Calm Calm - N/A   Mist
4:15 AM 71.6 °F - 69.8 °F 94% 30.30 in 6.0 mi Calm Calm - N/A   Scattered Clouds
4:54 AM 70.0 °F - 68.0 °F 93% 30.27 in 8.0 mi Calm Calm - N/A   Partly Cloudy
5:54 AM 70.0 °F - 68.0 °F 93% 30.29 in 0.8 mi Calm Calm - N/A   Scattered Clouds
6:54 AM 70.0 °F - 68.0 °F 93% 30.30 in 0.8 mi Calm Calm - N/A   Scattered Clouds
7:54 AM 71.1 °F - 69.1 °F 93% 30.32 in 6.0 mi Calm Calm - 0.00 in   Partly Cloudy
8:54 AM 75.9 °F - 70.0 °F 82% 30.33 in 10.0 mi Calm Calm - N/A   Clear
9:54 AM 82.0 °F 86.3 °F 71.1 °F 69% 30.33 in 10.0 mi Calm Calm - N/A   Clear
10:54 AM 86.0 °F 92.2 °F 72.0 °F 63% 30.32 in 10.0 mi Calm Calm - N/A   Partly Cloudy
11:54 AM 87.1 °F 91.3 °F 69.1 °F 55% 30.31 in 10.0 mi East 3.5 mph - N/A   Scattered Clouds
12:54 PM 88.0 °F 91.4 °F 68.0 °F 51% 30.30 in 10.0 mi East 3.5 mph - N/A   Scattered Clouds
1:54 PM 91.0 °F 95.6 °F 69.1 °F 48% 30.28 in 10.0 mi Variable 3.5 mph - N/A   Mostly Cloudy
2:54 PM 91.0 °F 94.3 °F 66.9 °F 45% 30.27 in 10.0 mi Calm Calm - N/A   Scattered Clouds
3:54 PM 91.9 °F 95.9 °F 68.0 °F 45% 30.25 in 10.0 mi NW 4.6 mph - N/A   Scattered Clouds
4:54 PM 91.9 °F 95.9 °F 68.0 °F 45% 30.24 in 10.0 mi NNW 3.5 mph - N/A   Scattered Clouds
5:54 PM 91.9 °F 96.9 °F 69.1 °F 47% 30.25 in 10.0 mi WNW 4.6 mph - N/A   Scattered Clouds
6:54 PM 90.0 °F 95.4 °F 70.0 °F 52% 30.24 in 10.0 mi North 3.5 mph - N/A   Scattered Clouds
7:54 PM 88.0 °F 94.7 °F 72.0 °F 59% 30.25 in 10.0 mi Calm Calm - N/A   Scattered Clouds
8:54 PM 82.9 °F 89.4 °F 73.9 °F 74% 30.24 in 10.0 mi Calm Calm - N/A   Partly Cloudy
9:54 PM 80.1 °F 84.5 °F 73.9 °F 81% 30.26 in 10.0 mi Calm Calm - N/A   Clear
10:54 PM 79.0 °F - 73.9 °F 84% 30.26 in 10.0 mi Calm Calm - N/A   Clear
11:54 PM 77.0 °F - 73.0 °F 88% 30.27 in 10.0 mi Calm Calm - N/A   Clear